AUA255 EDLW-EDDC

Flight info

Callsign AUA255
Flight time 0h 42m
Altitude 27000
Route NUDGO3Q NUDGO Z858 BERDI Z21 OSTRA DCT OSKAN OSKAN4B
Aircraft A20N/M-SDE2E3FGHIRWXY/LB1

Departure

Time 2026-05-07 18:52
Airport Dortmund Airport (EDLW)

Arrival

Time 2026-05-07 19:35
Airport Dresden Airport (EDDC)
Time Latitude Longitude Altitude Speed Heading
2026-05-07 18:33 51.51639 7.61477 433 ft 0 kts 151°
2026-05-07 18:45 51.51651 7.61467 424 ft 2 kts 153°
2026-05-07 18:45 51.51666 7.61454 421 ft 2 kts 152°
2026-05-07 18:45 51.51680 7.61442 419 ft 2 kts 154°
2026-05-07 18:46 51.51696 7.61431 418 ft 2 kts 161°
2026-05-07 18:46 51.51712 7.61427 424 ft 2 kts 224°
2026-05-07 18:46 51.51717 7.61437 417 ft 0 kts 240°
2026-05-07 18:48 51.51716 7.61435 417 ft 1 kts 240°
2026-05-07 18:48 51.51702 7.61395 424 ft 8 kts 240°
2026-05-07 18:48 51.51658 7.61272 426 ft 16 kts 239°
2026-05-07 18:49 51.51595 7.61083 425 ft 22 kts 248°
2026-05-07 18:49 51.51518 7.60843 420 ft 26 kts 239°
2026-05-07 18:49 51.51436 7.60610 423 ft 16 kts 241°
2026-05-07 18:49 51.51429 7.60590 420 ft 0 kts 241°
2026-05-07 18:50 51.51418 7.60558 421 ft 9 kts 240°
2026-05-07 18:51 51.51368 7.60416 430 ft 19 kts 244°
2026-05-07 18:51 51.51431 7.60247 420 ft 22 kts 335°
2026-05-07 18:51 51.51504 7.60291 425 ft 0 kts 63°
2026-05-07 18:51 51.51518 7.60337 424 ft 17 kts 64°
2026-05-07 18:52 51.51707 7.60875 423 ft 92 kts 60°
2026-05-07 18:52 51.52119 7.62061 428 ft 147 kts 60°
2026-05-07 18:52 51.52655 7.63568 814 ft 163 kts 60°
2026-05-07 18:52 51.53244 7.65232 1177 ft 179 kts 61°
2026-05-07 18:53 51.53884 7.67039 1562 ft 192 kts 61°
2026-05-07 18:53 51.54555 7.68931 2044 ft 196 kts 61°
2026-05-07 18:53 51.55224 7.70874 2469 ft 203 kts 63°
2026-05-07 18:53 51.55909 7.72975 2803 ft 222 kts 61°
2026-05-07 18:54 51.56369 7.75440 3086 ft 243 kts 88°
2026-05-07 18:54 51.56006 7.78176 3451 ft 258 kts 110°
2026-05-07 18:54 51.55246 7.80782 3989 ft 263 kts 116°
2026-05-07 18:54 51.54388 7.83393 4574 ft 266 kts 116°
2026-05-07 18:55 51.53533 7.86039 5139 ft 269 kts 116°
2026-05-07 18:55 51.52682 7.88733 5694 ft 272 kts 118°
2026-05-07 18:55 51.51609 7.91253 6270 ft 275 kts 129°
2026-05-07 18:55 51.50273 7.93502 7071 ft 280 kts 134°
2026-05-07 18:56 51.48910 7.95753 8144 ft 282 kts 134°
2026-05-07 18:56 51.47536 7.98049 9135 ft 287 kts 134°
2026-05-07 18:56 51.46152 8.00367 10127 ft 292 kts 134°
2026-05-07 18:56 51.44706 8.02786 10743 ft 310 kts 134°
2026-05-07 18:57 51.43164 8.05381 11127 ft 333 kts 131°
2026-05-07 18:57 51.41987 8.08652 11711 ft 346 kts 108°
2026-05-07 18:57 51.41629 8.12469 12587 ft 350 kts 91°
2026-05-07 18:57 51.41607 8.16407 13455 ft 356 kts 90°
2026-05-07 18:58 51.41595 8.20390 14262 ft 361 kts 90°
2026-05-07 18:58 51.41570 8.24439 15037 ft 365 kts 91°
2026-05-07 18:58 51.41535 8.28527 15798 ft 370 kts 91°
2026-05-07 18:58 51.41494 8.32674 16550 ft 374 kts 91°
2026-05-07 18:59 51.41451 8.36821 17282 ft 379 kts 91°
2026-05-07 18:59 51.41405 8.41049 18015 ft 384 kts 91°
2026-05-07 18:59 51.41357 8.45369 18694 ft 388 kts 91°
2026-05-07 18:59 51.41310 8.49722 19358 ft 392 kts 91°
2026-05-07 19:00 51.41263 8.54113 19998 ft 396 kts 91°
2026-05-07 19:00 51.41214 8.58540 20647 ft 399 kts 91°
2026-05-07 19:00 51.41163 8.63002 21291 ft 403 kts 91°
2026-05-07 19:00 51.41110 8.67502 21926 ft 407 kts 91°
2026-05-07 19:01 51.41054 8.72060 22548 ft 410 kts 91°
2026-05-07 19:01 51.40929 8.76649 23161 ft 414 kts 96°
2026-05-07 19:01 51.40563 8.81251 23764 ft 417 kts 98°
2026-05-07 19:01 51.40189 8.85881 24302 ft 420 kts 98°
2026-05-07 19:02 51.39819 8.90509 24847 ft 422 kts 97°
2026-05-07 19:02 51.39443 8.95214 25376 ft 425 kts 97°
2026-05-07 19:02 51.39074 8.99845 25876 ft 428 kts 97°
2026-05-07 19:02 51.38698 9.04601 26390 ft 430 kts 96°
2026-05-07 19:03 51.38565 9.09401 26854 ft 433 kts 88°
2026-05-07 19:03 51.38708 9.14237 27068 ft 435 kts 87°
2026-05-07 19:03 51.38860 9.19063 27100 ft 434 kts 87°
2026-05-07 19:03 51.39006 9.23901 27103 ft 434 kts 87°
2026-05-07 19:04 51.39146 9.28733 27103 ft 434 kts 87°
2026-05-07 19:04 51.39283 9.33550 27103 ft 434 kts 87°
2026-05-07 19:04 51.39418 9.38381 27101 ft 434 kts 87°
2026-05-07 19:04 51.39551 9.43209 27103 ft 434 kts 87°
2026-05-07 19:05 51.39679 9.47951 27101 ft 434 kts 87°
2026-05-07 19:05 51.39809 9.52848 27101 ft 434 kts 87°
2026-05-07 19:05 51.39936 9.57675 27101 ft 433 kts 87°
2026-05-07 19:05 51.40059 9.62431 27102 ft 433 kts 87°
2026-05-07 19:06 51.40182 9.67267 27100 ft 433 kts 87°
2026-05-07 19:06 51.40423 9.76916 27100 ft 433 kts 87°
2026-05-07 19:06 51.40541 9.81751 27100 ft 434 kts 88°
2026-05-07 19:07 51.40658 9.86584 27097 ft 434 kts 88°
2026-05-07 19:07 51.40772 9.91410 27097 ft 434 kts 88°
2026-05-07 19:07 51.40885 9.96243 27097 ft 434 kts 88°
2026-05-07 19:07 51.40995 10.01081 27100 ft 434 kts 88°
2026-05-07 19:08 51.41104 10.05904 27100 ft 434 kts 88°
2026-05-07 19:08 51.41210 10.10741 27101 ft 434 kts 88°
2026-05-07 19:08 51.41315 10.15587 27098 ft 434 kts 88°
2026-05-07 19:08 51.41417 10.20417 27102 ft 434 kts 88°
2026-05-07 19:09 51.41517 10.25209 27102 ft 434 kts 88°
2026-05-07 19:09 51.41616 10.30094 27099 ft 434 kts 88°
2026-05-07 19:09 51.41712 10.34922 27100 ft 434 kts 88°
2026-05-07 19:09 51.41807 10.39756 27100 ft 434 kts 88°
2026-05-07 19:10 51.41898 10.44538 27098 ft 434 kts 88°
2026-05-07 19:10 51.41975 10.49367 27099 ft 434 kts 90°
2026-05-07 19:10 51.41781 10.54264 27098 ft 434 kts 97°
2026-05-07 19:10 51.41320 10.58973 27103 ft 434 kts 99°
2026-05-07 19:11 51.40848 10.63748 27097 ft 434 kts 99°
2026-05-07 19:11 51.40382 10.68525 27099 ft 434 kts 99°
2026-05-07 19:11 51.39916 10.73300 27100 ft 434 kts 99°
2026-05-07 19:11 51.39446 10.78078 27099 ft 434 kts 99°
2026-05-07 19:12 51.38974 10.82853 27099 ft 434 kts 99°
2026-05-07 19:12 51.38500 10.87619 27101 ft 434 kts 99°
2026-05-07 19:12 51.38109 10.92398 27101 ft 433 kts 94°
2026-05-07 19:12 51.38080 10.97227 27097 ft 433 kts 86°
2026-05-07 19:13 51.38272 11.02032 26926 ft 433 kts 86°
2026-05-07 19:13 51.38456 11.06781 26482 ft 432 kts 86°
2026-05-07 19:13 51.38633 11.11575 25973 ft 428 kts 86°
2026-05-07 19:13 51.38804 11.16267 25474 ft 422 kts 86°
2026-05-07 19:14 51.38972 11.20963 24981 ft 417 kts 86°
2026-05-07 19:14 51.39136 11.25601 24498 ft 417 kts 86°
2026-05-07 19:14 51.39298 11.30217 24024 ft 415 kts 86°
2026-05-07 19:14 51.39455 11.34763 23534 ft 411 kts 86°
2026-05-07 19:15 51.39610 11.39291 22981 ft 407 kts 86°
2026-05-07 19:15 51.39762 11.43793 22439 ft 404 kts 86°
2026-05-07 19:15 51.39912 11.48270 21906 ft 400 kts 86°
2026-05-07 19:15 51.40059 11.52695 21304 ft 398 kts 86°
2026-05-07 19:16 51.40205 11.57123 20663 ft 396 kts 86°
2026-05-07 19:16 51.40348 11.61505 20240 ft 389 kts 86°
2026-05-07 19:16 51.40485 11.65781 20114 ft 386 kts 86°
2026-05-07 19:16 51.40623 11.70101 20072 ft 390 kts 86°
2026-05-07 19:17 51.40759 11.74435 19799 ft 389 kts 86°
2026-05-07 19:17 51.40893 11.78755 19245 ft 388 kts 86°
2026-05-07 19:17 51.40983 11.81682 18762 ft 389 kts 86°
2026-05-07 19:17 51.41158 11.87426 17739 ft 390 kts 86°
2026-05-07 19:18 51.41288 11.91760 16949 ft 390 kts 86°
2026-05-07 19:18 51.41416 11.96100 16173 ft 389 kts 86°
2026-05-07 19:18 51.41505 12.00428 15479 ft 387 kts 91°
2026-05-07 19:18 51.41096 12.04596 15187 ft 369 kts 106°
2026-05-07 19:19 51.40092 12.08289 15111 ft 363 kts 116°
2026-05-07 19:19 51.38941 12.11911 15103 ft 365 kts 116°
2026-05-07 19:19 51.37780 12.15516 15103 ft 364 kts 116°
2026-05-07 19:19 51.36607 12.19112 15102 ft 365 kts 116°
2026-05-07 19:20 51.35448 12.22634 15103 ft 365 kts 117°
2026-05-07 19:20 51.34235 12.26303 15105 ft 365 kts 117°
2026-05-07 19:20 51.33059 12.29849 15104 ft 366 kts 117°
2026-05-07 19:20 51.31867 12.33438 15100 ft 365 kts 117°
2026-05-07 19:21 51.30672 12.37031 15098 ft 365 kts 117°
2026-05-07 19:21 51.29478 12.40617 15097 ft 365 kts 117°
2026-05-07 19:21 51.28285 12.44197 15097 ft 365 kts 117°
2026-05-07 19:21 51.27090 12.47779 15093 ft 365 kts 117°
2026-05-07 19:22 51.25895 12.51354 15093 ft 365 kts 117°
2026-05-07 19:22 51.24710 12.54895 15091 ft 365 kts 117°
2026-05-07 19:22 51.23503 12.58498 15083 ft 365 kts 118°
2026-05-07 19:22 51.22305 12.62066 15079 ft 364 kts 118°
2026-05-07 19:23 51.21111 12.65620 15077 ft 364 kts 118°
2026-05-07 19:23 51.19909 12.69192 15079 ft 365 kts 118°
2026-05-07 19:23 51.18709 12.72751 15079 ft 365 kts 118°
2026-05-07 19:23 51.17508 12.76308 15075 ft 365 kts 118°
2026-05-07 19:24 51.16315 12.79836 15079 ft 365 kts 118°
2026-05-07 19:24 51.15111 12.83391 15077 ft 365 kts 118°
2026-05-07 19:24 51.13907 12.86942 15063 ft 364 kts 118°
2026-05-07 19:24 51.12700 12.90497 14834 ft 366 kts 118°
2026-05-07 19:25 51.11489 12.94059 14294 ft 364 kts 119°
2026-05-07 19:25 51.10288 12.97587 13540 ft 360 kts 119°
2026-05-07 19:25 51.09105 13.01055 12740 ft 355 kts 119°
2026-05-07 19:25 51.07930 13.04496 11960 ft 350 kts 119°
2026-05-07 19:26 51.06778 13.07864 11195 ft 346 kts 119°
2026-05-07 19:26 51.05634 13.11206 10510 ft 340 kts 119°
2026-05-07 19:26 51.04521 13.14451 10201 ft 334 kts 119°
2026-05-07 19:26 51.03402 13.17709 9916 ft 337 kts 120°
2026-05-07 19:27 51.02283 13.20964 9278 ft 333 kts 120°
2026-05-07 19:27 51.01172 13.24189 8491 ft 330 kts 120°
2026-05-07 19:27 51.00076 13.27366 7712 ft 327 kts 119°
2026-05-07 19:27 50.98998 13.30490 7267 ft 314 kts 119°
2026-05-07 19:28 50.97979 13.33441 7113 ft 300 kts 119°
2026-05-07 19:28 50.96961 13.36384 6832 ft 305 kts 119°
2026-05-07 19:28 50.95945 13.39317 6215 ft 304 kts 119°
2026-05-07 19:28 50.94924 13.42258 5444 ft 304 kts 119°
2026-05-07 19:29 50.94109 13.45333 4662 ft 303 kts 98°
2026-05-07 19:29 50.94114 13.48599 4185 ft 290 kts 77°
2026-05-07 19:29 50.94971 13.51292 4022 ft 264 kts 46°
2026-05-07 19:29 50.96258 13.53219 3988 ft 244 kts 40°
2026-05-07 19:30 50.97470 13.54877 3988 ft 223 kts 39°
2026-05-07 19:30 50.98600 13.56426 4001 ft 212 kts 39°
2026-05-07 19:30 50.99352 13.57455 3995 ft 211 kts 39°
2026-05-07 19:30 51.00820 13.59466 3903 ft 210 kts 39°
2026-05-07 19:31 51.01926 13.60983 3602 ft 210 kts 40°
2026-05-07 19:31 51.03024 13.62488 3308 ft 209 kts 40°
2026-05-07 19:31 51.04125 13.63998 3017 ft 207 kts 40°
2026-05-07 19:31 51.05209 13.65487 2719 ft 203 kts 40°
2026-05-07 19:32 51.05919 13.66462 2546 ft 197 kts 40°
2026-05-07 19:32 51.06883 13.67787 2308 ft 175 kts 39°
2026-05-07 19:32 51.07764 13.68996 2064 ft 158 kts 39°
2026-05-07 19:32 51.08540 13.70065 1864 ft 139 kts 39°
2026-05-07 19:33 51.09240 13.71027 1664 ft 129 kts 39°
2026-05-07 19:33 51.09940 13.71982 1447 ft 133 kts 39°
2026-05-07 19:33 51.10640 13.72931 1197 ft 127 kts 39°
2026-05-07 19:33 51.11315 13.73870 1097 ft 132 kts 41°
2026-05-07 19:34 51.12001 13.74832 911 ft 130 kts 40°
2026-05-07 19:34 51.12684 13.75776 775 ft 129 kts 40°
2026-05-07 19:34 51.13309 13.76629 738 ft 95 kts 40°
2026-05-07 19:34 51.13649 13.77097 731 ft 54 kts 40°
2026-05-07 19:35 51.13885 13.77419 723 ft 31 kts 44°
2026-05-07 19:35 51.13900 13.77503 719 ft 9 kts 112°
2026-05-07 19:35 51.13846 13.77611 720 ft 15 kts 132°
2026-05-07 19:35 51.13813 13.77671 718 ft 0 kts 131°
2026-05-07 19:37 51.13811 13.77675 718 ft 2 kts 131°
2026-05-07 19:37 51.13787 13.77717 718 ft 0 kts 136°
2026-05-07 19:38 51.13782 13.77722 716 ft 2 kts 149°
2026-05-07 19:38 51.13738 13.77695 717 ft 13 kts 207°
2026-05-07 19:38 51.13639 13.77575 721 ft 21 kts 238°
2026-05-07 19:38 51.13537 13.77413 727 ft 20 kts 218°
2026-05-07 19:39 51.13436 13.77279 726 ft 19 kts 221°
2026-05-07 19:39 51.13330 13.77136 729 ft 21 kts 219°
2026-05-07 19:39 51.13211 13.76972 735 ft 23 kts 224°
2026-05-07 19:39 51.13088 13.76799 741 ft 25 kts 220°
2026-05-07 19:40 51.12953 13.76616 746 ft 26 kts 222°
2026-05-07 19:40 51.12833 13.76456 745 ft 20 kts 205°
2026-05-07 19:40 51.12768 13.76499 749 ft 8 kts 126°
2026-05-07 19:40 51.12715 13.76588 748 ft 14 kts 132°
2026-05-07 19:41 51.12658 13.76677 752 ft 2 kts 176°
2026-05-07 19:41 51.12645 13.76667 752 ft 4 kts 205°
2026-05-07 19:41 51.12601 13.76613 750 ft 11 kts 224°
2026-05-07 19:41 51.12597 13.76607 750 ft 0 kts 224°